Weather History for Fort Leonard Wood, MO

Change the Weather History Date:

Saturday, November 17, 2012

  Actual Average Record
Temperature  
Mean Temperature 47 °F -  
Max Temperature 61 °F 53 °F 75 °F (2013)
Min Temperature 33 °F 38 °F 15 °F (2005)
Degree Days  
Heating Degree Days 18    
Moisture  
Dew Point 27 °F    
Average Humidity 54    
Maximum Humidity 81    
Minimum Humidity 22    
Precipitation  
Precipitation 0.00 in - - ()
Sea Level Pressure  
Sea Level Pressure 30.41 in    
Wind  
Wind Speed 8 mph (SE)    
Max Wind Speed 14 mph    
Max Gust Speed -    
Visibility 10 miles    
Events      
Averages and records for this station are not official NWS values.
T = Trace of Precipitation, MM = Missing Value Source: NWS Daily Summary

Daily Weather History Graph

Daily Weather History Graph

Search for Another Location

Airport:

Trip Planner

Search our weather history database for the weather conditions in past years. The results will help you decide how hot, cold, wet, or windy it might be!

Date:

Astronomy

Nov. 17, 2012 Rise Set
Actual Time 6:51 AM CST 4:55 PM CST
Civil Twilight 6:23 AM CST 5:23 PM CST
Nautical Twilight 5:51 AM CST 5:55 PM CST
Astronomical Twilight 5:20 AM CST 6:26 PM CST
Moon 10:36 AM CST (11/17) 9:05 PM CST (11/17)
Length of Visible Light 11h 00m
Length of Day
10h 04m
Waxing Crescent, 20% of the Moon is Illuminated
Nov 17
Waxing Crescent
Nov 20
First Quarter
Nov 28
Full
Dec 6
Last Quarter
Dec 13
New

Hourly Weather History & Observations

Time (CST) Temp. Windchill Dew Point Humidity Pressure Visibility Wind Dir Wind Speed Gust Speed Precip Events Conditions
12:55 AM 39.4 °F 32.7 °F 31.6 °F 74% 30.42 in 10.0 mi SE 10.4 mph - N/A   Clear
1:55 AM 37.4 °F 32.8 °F 30.0 °F 75% 30.43 in 10.0 mi SSE 5.8 mph - N/A   Clear
2:55 AM 36.7 °F 32.0 °F 29.3 °F 75% 30.43 in 10.0 mi SSE 5.8 mph - N/A   Clear
3:55 AM 35.2 °F 29.5 °F 29.5 °F 80% 30.43 in 10.0 mi SSE 6.9 mph - N/A   Clear
4:55 AM 33.4 °F 27.3 °F 28.2 °F 81% 30.43 in 10.0 mi SSE 6.9 mph - N/A   Clear
5:55 AM 34.2 °F 29.0 °F 27.7 °F 77% 30.44 in 10.0 mi SSE 5.8 mph - N/A   Clear
6:55 AM 34.3 °F 27.7 °F 27.1 °F 75% 30.45 in 10.0 mi SE 8.1 mph - N/A   Clear
7:55 AM 36.5 °F 31.8 °F 28.8 °F 74% 30.47 in 10.0 mi SSE 5.8 mph - N/A   Clear
8:55 AM 42.8 °F 35.8 °F 30.7 °F 62% 30.45 in 10.0 mi SE 13.8 mph - N/A   Clear
9:55 AM 48.7 °F - 27.0 °F 43% 30.48 in 10.0 mi South 6.9 mph - N/A   Clear
10:55 AM 54.3 °F - 19.2 °F 25% 30.47 in 10.0 mi SSE 8.1 mph - N/A   Clear
11:55 AM 57.6 °F - 18.9 °F 22% 30.43 in 10.0 mi SE 8.1 mph - N/A   Clear
12:55 PM 59.7 °F - 23.2 °F 25% 30.40 in 10.0 mi ESE 5.8 mph - N/A   Clear
1:55 PM 60.6 °F - 25.3 °F 26% 30.38 in 10.0 mi Variable 3.5 mph - N/A   Clear
2:55 PM 61.0 °F - 26.1 °F 26% 30.37 in 10.0 mi ESE 5.8 mph - N/A   Clear
3:55 PM 59.9 °F - 25.2 °F 26% 30.37 in 10.0 mi SE 10.4 mph - N/A   Clear
4:55 PM 54.1 °F - 26.8 °F 35% 30.36 in 10.0 mi SSE 5.8 mph - N/A   Clear
5:55 PM 49.6 °F - 27.5 °F 42% 30.35 in 10.0 mi SE 8.1 mph - N/A   Clear
6:55 PM 46.6 °F - 28.0 °F 49% 30.37 in 10.0 mi SE 6.9 mph - N/A   Clear
7:55 PM 44.6 °F 40.2 °F 28.4 °F 53% 30.37 in 10.0 mi SE 8.1 mph - N/A   Clear
8:55 PM 43.0 °F 38.2 °F 28.8 °F 57% 30.38 in 10.0 mi SE 8.1 mph - N/A   Clear
9:55 PM 39.4 °F 34.5 °F 29.3 °F 67% 30.38 in 10.0 mi SE 6.9 mph - N/A   Clear
10:55 PM 39.9 °F 33.4 °F 29.3 °F 66% 30.36 in 10.0 mi SE 10.4 mph - N/A   Clear
11:55 PM 39.9 °F 34.5 °F 27.9 °F 62% 30.37 in 10.0 mi SSE 8.1 mph - N/A   Clear